Find Local Weather

World > North America > United States > Arizona

Overgaard, Arizona Regional Weather

Lat: 34.39N, Lon: 110.55W
Wx Zone: AZZ016
Feedback
Expires:201806240400;;016570
ASUS45 KPSR 240310
RWRAZ 

ARIZONA HOURLY REGIONAL WEATHER ROUNDUP
NATIONAL WEATHER SERVICE PHOENIX AZ
800 PM MST SAT JUN 23 2018

NOTE: FAIR INDICATES FEW OR NO CLOUDS BELOW 12,000 FEET WITH NO
SIGNIFICANT WEATHER AND/OR OBSTRUCTIONS TO VISIBILITY.


AZZ004>008-015-016-018-240400-
NORTH CENTRAL ARIZONA
  
CITY           SKY/WX    TMP DP  RH WIND       PRES   REMARKS
GRAND CANYON   CLEAR     78  22  12 SW15G22   30.09R                  
WILLIAMS       CLEAR     75  25  15 SW9       30.10S                  
PRESCOTT       CLEAR     82  36  19 SW9       30.01R                  
FLAGSTAFF      CLEAR     74  30  19 W9G20     30.14R                  
PAYSON         CLEAR     82  37  20 SW6G13    30.02S                  
PAGE           CLEAR     94  13   5 W10G20    29.78R                  
$$


SKY/WX - Weather  TMP - Temperature  DP - Dewpoint  RH - Relative Humidity
WIND - Wind Direction/Speed PRES - Barometric Pressure